Terminal Aerodrome Forecast
Issued by NWS Tuscon, AZ

Home | Current Version | Previous Version | Text Only | Print | Product List | Glossary On
Versions: 1 2 3 4 5 6 7 8 9 10 11 12 13 14 15 16
000
FTUS45 KTWC 211300 AAA
TAFTUS
TAF AMD
KTUS 211314Z 2113/2212 15008KT P6SM BKN080 BKN110
     FM212000 32006KT P6SM VCSH BKN070 BKN110
     FM212300 28007KT P6SM SCT080 BKN120
     FM220700 14007KT P6SM SCT120=

USA.gov is the U.S. government's official web portal to all federal, state and local government web resources and services.